This is the latest recevied weather packets stored in our database for station/object CE7LGA-10. If no packets are shown the sender has not sent any weather packets the latest 10 day(s).
| Time | Temp. | Humidity | Pressure | Rain* | Wind** | Luminosity | Snow |
|---|---|---|---|---|---|---|---|
| 1788010703 | 14.44° C | 69% | 998.3 hPa | - | - | - | - |
| 1788009803 | 14.44° C | 70% | 998.1 hPa | - | - | - | - |
| 1788008903 | 13.89° C | 70% | 998.1 hPa | - | - | - | - |
| 1788008002 | 13.89° C | 72% | 998.1 hPa | - | - | - | - |
| 1788007102 | 13.89° C | 75% | 998 hPa | - | - | - | - |
| 1788006202 | 13.89° C | 69% | 997.8 hPa | - | - | - | - |
| 1788005302 | 13.89° C | 67% | 997.7 hPa | - | - | - | - |
| 1788004402 | 13.89° C | 67% | 997.6 hPa | - | - | - | - |
| 1788003502 | 13.89° C | 68% | 997.5 hPa | - | - | - | - |
| 1788002602 | 13.89° C | 67% | 997.5 hPa | - | - | - | - |
| 1788001702 | 13.89° C | 67% | 997.6 hPa | - | - | - | - |
| 1788000802 | 13.89° C | 67% | 997.6 hPa | - | - | - | - |
| 1787999904 | 13.89° C | 66% | 997.5 hPa | - | - | - | - |
| 1787999004 | 13.89° C | 66% | 997.7 hPa | - | - | - | - |
| 1787998104 | 13.89° C | 67% | 997.6 hPa | - | - | - | - |
| 1787997204 | 14.44° C | 67% | 997.6 hPa | - | - | - | - |
| 1787996304 | 14.44° C | 67% | 997.4 hPa | - | - | - | - |
| 1787995404 | 14.44° C | 66% | 997.3 hPa | - | - | - | - |
| 1787994503 | 14.44° C | 67% | 997.2 hPa | - | - | - | - |
| 1787993603 | 15° C | 66% | 997.1 hPa | - | - | - | - |
| 1787992703 | 15° C | 67% | 997.2 hPa | - | - | - | - |
| 1787991803 | 15° C | 67% | 997.1 hPa | - | - | - | - |
| 1787990903 | 15° C | 66% | 997.3 hPa | - | - | - | - |
| 1787990003 | 15° C | 66% | 997.2 hPa | - | - | - | - |
| 1787989103 | 15° C | 66% | 997.3 hPa | - | - | - | - |
* Rain since midnight (hover to see other rain measurements)
** Current wind speed in m/s (hover to see current wind gust speed)